Change the Weather History Date:

Friday, May 2, 2014

  Actual Average Record
Temperature  
Mean Temperature 50 °F -  
Max Temperature 55 °F 68 °F 84 °F (2012)
Min Temperature 44 °F 49 °F 37 °F (1997)
Degree Days  
Heating Degree Days 16    
Moisture  
Dew Point 41 °F    
Average Humidity 73    
Maximum Humidity 87    
Minimum Humidity 58    
Precipitation  
Precipitation 0.00 in - - ()
Sea Level Pressure  
Sea Level Pressure 29.87 in    
Wind  
Wind Speed 9 mph (SW)    
Max Wind Speed 14 mph    
Max Gust Speed 18 mph    
Visibility 10 miles    
Events      
Averages and records for this station are not official NWS values.
T = Trace of Precipitation, MM = Missing Value Source: NWS Daily Summary

Daily Weather History Graph

Daily Weather History Graph

Search for Another Location

Airport or City:

Trip Planner

Search our weather history database for the weather conditions in past years. The results will help you decide how hot, cold, wet, or windy it might be!

Date:

Astronomy

May. 02, 2014 Rise Set
Actual Time 6:31 AM EDT 8:28 PM EDT
Civil Twilight 6:02 AM EDT 8:57 PM EDT
Nautical Twilight 5:26 AM EDT 9:33 PM EDT
Astronomical Twilight 4:47 AM EDT 10:12 PM EDT
Moon 9:07 AM EDT (5/2) 11:49 PM EDT (5/2)
Length of Visible Light 14h 55m
Length of Day
13h 56m
Waxing Crescent, 12% of the Moon is Illuminated
May 2
Waxing Crescent
May 6
First Quarter
May 14
Full
May 21
Last Quarter
May 28
New

Hourly Weather History & Observations

Time (EDT) Temp. Windchill Dew Point Humidity Pressure Visibility Wind Dir Wind Speed Gust Speed Precip Events Conditions
12:15 AM 50.0 °F - 38.3 °F 64% 29.88 in 10.0 mi West 9.2 mph - N/A   Overcast
12:35 AM 49.6 °F - 38.3 °F 65% 29.88 in 10.0 mi West 9.2 mph 18.4 mph N/A   Overcast
12:55 AM 48.4 °F - 36.9 °F 64% 29.88 in 10.0 mi WSW 10.4 mph - N/A   Mostly Cloudy
1:15 AM 47.1 °F - 36.9 °F 68% 29.88 in 10.0 mi WSW 9.2 mph - N/A   Clear
1:35 AM 45.5 °F 41.8 °F 37.0 °F 72% 29.88 in 10.0 mi SW 6.9 mph - N/A   Clear
2:00 AM 45.1 °F 40.3 °F 37.0 °F 73% 29.88 in 10.0 mi WSW 9.2 mph - N/A   Clear
2:15 AM 45.0 °F 41.2 °F 37.6 °F 75% 29.88 in 10.0 mi SW 6.9 mph - N/A   Mostly Cloudy
2:35 AM 45.5 °F 41.3 °F 38.1 °F 75% 29.87 in 10.0 mi SW 8.1 mph - N/A   Overcast
2:55 AM 45.9 °F 41.2 °F 37.9 °F 74% 29.86 in 10.0 mi WSW 9.2 mph - N/A   Overcast
3:15 AM 46.4 °F 41.9 °F 38.1 °F 73% 29.86 in 10.0 mi WSW 9.2 mph - N/A   Overcast
3:35 AM 46.4 °F 41.5 °F 38.7 °F 74% 29.86 in 10.0 mi WSW 10.4 mph - N/A   Overcast
3:55 AM 46.4 °F 41.9 °F 39.2 °F 76% 29.86 in 10.0 mi WSW 9.2 mph - N/A   Overcast
4:15 AM 46.2 °F 42.2 °F 39.2 °F 76% 29.86 in 10.0 mi SW 8.1 mph - N/A   Overcast
4:35 AM 45.0 °F 41.2 °F 39.6 °F 81% 29.86 in 10.0 mi SW 6.9 mph - N/A   Overcast
4:55 AM 45.1 °F 41.4 °F 39.7 °F 81% 29.86 in 10.0 mi SSW 6.9 mph - N/A   Overcast
5:15 AM 45.0 °F 40.6 °F 40.1 °F 83% 29.86 in 10.0 mi SW 8.1 mph - N/A   Overcast
5:35 AM 44.8 °F - 39.6 °F 82% 29.86 in 10.0 mi North - - N/A   Overcast
5:55 AM 44.6 °F 40.7 °F 39.6 °F 82% 29.86 in 10.0 mi SW 6.9 mph - N/A   Overcast
6:15 AM 44.6 °F - 39.6 °F 82% 29.86 in 10.0 mi North - - N/A   Overcast
6:35 AM 44.8 °F - 39.7 °F 82% 29.87 in 10.0 mi North - - N/A   Overcast
6:55 AM 44.8 °F - 40.1 °F 84% 29.87 in 10.0 mi North - - N/A   Overcast
7:15 AM 45.1 °F 41.4 °F 40.3 °F 83% 29.87 in 10.0 mi SW 6.9 mph - N/A   Overcast
7:30 AM 44.6 °F 41.4 °F 41.0 °F 87% 29.87 in 10.0 mi SSW 5.8 mph - N/A   Overcast
7:50 AM 46.4 °F 42.9 °F 41.0 °F 81% 29.89 in 10.0 mi SW 6.9 mph - N/A   Overcast
9:50 AM 50.0 °F - 42.8 °F 76% 29.89 in 10.0 mi SW 13.8 mph 18.4 mph N/A   Overcast
10:55 AM 51.8 °F - 42.8 °F 71% 29.90 in 10.0 mi WSW 9.2 mph - N/A   Overcast
11:55 AM 53.6 °F - 42.8 °F 67% 29.90 in 10.0 mi WSW 12.7 mph 18.4 mph N/A   Overcast
12:50 PM 53.6 °F - 44.6 °F 72% 29.89 in 10.0 mi SSW 13.8 mph 18.4 mph N/A   Overcast
1:50 PM 53.6 °F - 42.8 °F 67% 29.88 in 10.0 mi West 11.5 mph 18.4 mph N/A   Overcast
2:55 PM 55.4 °F - 44.6 °F 67% 29.87 in 10.0 mi WSW 10.4 mph 16.1 mph N/A   Overcast
3:55 PM 53.6 °F - 42.8 °F 67% 29.87 in 10.0 mi West 8.1 mph - N/A   Overcast
4:47 PM 55.4 °F - 42.8 °F 63% 29.86 in 10.0 mi WSW 12.7 mph - N/A   Overcast
5:47 PM 55.4 °F - 41.0 °F 58% 29.87 in 10.0 mi WSW 12.7 mph - N/A   Overcast
6:50 PM 55.4 °F - 41.0 °F 58% 29.87 in 10.0 mi SW 10.4 mph - N/A   Overcast
7:35 PM 54.1 °F - 41.9 °F 63% 29.87 in 10.0 mi SW 6.9 mph - N/A   Overcast
7:55 PM 53.1 °F - 42.3 °F 67% 29.87 in 10.0 mi SW 6.9 mph - N/A   Overcast
8:15 PM 52.7 °F - 42.4 °F 68% 29.87 in 10.0 mi SW 8.1 mph - N/A   Overcast
8:35 PM 52.3 °F - 42.1 °F 68% 29.88 in 10.0 mi SSW 6.9 mph - N/A   Overcast
8:55 PM 51.4 °F - 42.8 °F 72% 29.87 in 10.0 mi SW 4.6 mph - N/A   Overcast
9:15 PM 51.1 °F - 43.0 °F 74% 29.87 in 10.0 mi SSW 4.6 mph - N/A   Overcast
9:35 PM 51.1 °F - 43.2 °F 74% 29.87 in 10.0 mi SSW 5.8 mph - N/A   Overcast
9:55 PM 51.1 °F - 43.2 °F 74% 29.87 in 10.0 mi SSW 5.8 mph - N/A   Overcast
10:15 PM 50.5 °F - 43.9 °F 78% 29.87 in 10.0 mi SW 3.5 mph - N/A   Overcast
10:35 PM 51.1 °F - 43.9 °F 76% 29.88 in 10.0 mi SW 4.6 mph - N/A   Overcast
10:55 PM 51.8 °F - 43.7 °F 74% 29.88 in 10.0 mi West 4.6 mph - N/A   Overcast
11:15 PM 51.8 °F - 43.7 °F 74% 29.88 in 10.0 mi West 4.6 mph - N/A   Overcast
11:35 PM 51.3 °F - 43.5 °F 75% 29.88 in 10.0 mi WNW 5.8 mph - N/A   Overcast
11:55 PM 51.3 °F - 43.0 °F 73% 29.88 in 10.0 mi West 4.6 mph - N/A   Overcast